Regional Weather Roundup
Issued by NWS Albany, NY

Current Version | Previous Version | Text Only | Print | Product List | Glossary On
Versions: 1 2 3 4 5 6 7 8 9 10 11 12 13 14 15 16 17 18 19 20 21 22 23 24 25 26 27 28 29 30 31 32 33 34 35 36 37 38 39 40 41 42 43 44 45 46 47 48 49 50
000
ASUS41 KALY 231710
RWRALY

NEW YORK STATE HOURLY WEATHER ROUNDUP
NATIONAL WEATHER SERVICE ALBANY NY
100 PM EDT THU MAR 23 2017

NOTE: "FAIR" INDICATES FEW OR NO CLOUDS BELOW 12,000 FEET WITH NO
SIGNIFICANT WEATHER AND/OR NO OBSTRUCTIONS TO VISIBILITY.

NYZ032-033-038>043-046>054-057>066-NYZ062>081-082-084-231800-
EAST


CITY           SKY/WX    TMP DP  RH WIND       PRES   REMARKS
ALBANY         MOSUNNY   31   1  28 W6        30.54F WCI  25
GLENS FALLS    SUNNY     31   3  30 S7        30.49F WCI  24
POUGHKEEPSIE   SUNNY     32  -2  23 CALM      30.55F
NEWBURGH       SUNNY     30   3  31 CALM      30.55F
MONTGOMERY     SUNNY     35  -1  21 NW9       30.52F WCI  28
WHITE PLAINS   SUNNY     33  -1  23 NW15      30.54F WCI  23
ISLIP          SUNNY     35  -1  21 N16G25    30.54F WCI  25
NEW YORK CITY  SUNNY     36   0  21 NW15G21   30.58F WCI  27
CENTRAL PARK   SUNNY     37  -2  19 MISG      30.59F
$$

NYZ005>009-017-018-044>046-055-056-231800-
CENTRAL


CITY           SKY/WX    TMP DP  RH WIND       PRES   REMARKS
FULTON         SUNNY     31   6  35 W8        30.58F WCI  23
SYRACUSE       MOSUNNY   30   7  37 W7        30.58F WCI  23
ROME           MIX PCPN  28   8  43 VRB7G20   30.58F WCI  21
ELMIRA         SUNNY     32   5  32 VRB3      30.55F
BINGHAMTON     SUNNY     25   0  33 W8        30.49F WCI  16
MONTICELLO     SUNNY     28   1  31 W12G17    30.50F WCI  18
$$

NYZ026>034-041>043-087-231800-
NORTH


CITY           SKY/WX    TMP DP  RH WIND       PRES   REMARKS
WATERTOWN      SUNNY     30  19  63 W14       30.57F WCI  19
FORT DRUM      NOT AVBL
MASSENA        NOT AVBL
SARANAC LAKE   SUNNY     25  -3  29 W8G17     30.40F WCI  16
PLATTSBURGH    SUNNY     29   3  33 N16G23    30.49F WCI  17
$$

NYZ001>004-010>016-019>021-085-231800-
WEST


CITY           SKY/WX    TMP DP  RH WIND       PRES   REMARKS
NIAGARA FALLS  SUNNY     33  14  45 MISG      30.57F
BUFFALO        MOSUNNY   31  11  43 VRB3      30.56F
DUNKIRK        SUNNY     30  20  66 N7        30.58F WCI  23
JAMESTOWN      SUNNY     30   3  31 CALM      30.50F
WELLSVILLE     SUNNY     33   2  26 VRB5      30.48F WCI  29
ROCHESTER      MOSUNNY   31  11  43 VRB7      30.58F WCI  24
PENN YAN       SUNNY     29   7  39 VRB5      30.56F WCI  24
$$

             KEY
       WCI = WIND CHILL INDEX
       VSB = VISIBILITY
       HX  = HEAT INDEX
$$



USA.gov is the U.S. government's official web portal to all federal, state and local government web resources and services.